Zurück zum Katalog

DUCHIFAT 1

AktivAmateurfunkPO
NORAD 40021·PAYLOAD·🇮🇱 Israel

Gestartet Jun 19, 2014 von Dombarovsky

Loading…

Nächste Überflüge (nächste 24 Stunden)

TLE

AktuellSource: Space-Track

Epoche: Sep 13, 2026, 17:02 UTC

1 40021U 14033M   26256.70989409  .01461434  15217-2  15218-2 0  9995
2 40021  98.0135 330.2930 0008231 258.3689 101.6670 16.10844302669719

Verfolge DUCHIFAT 1 in Echtzeit mit AllMySat

Download on the App Store